Flag for Germany Weather past 2 weeks in Neuwied, Rhineland-Palatinate, Germany

31 °F

Light snow. Low clouds.

Feels Like: 27 °F
Forecast: 36 / 44 °F
Wind: 5 mph from Southwest

Location: Nuerburg-Barweiler

Current Time: Nov 25, 2015 at 12:13:10 AM

Latest Report: Nov 24, 2015 at 10:00 PM

Visibility: 13 mi

Pressure: 29.88 "Hg

Humidity: 92%

Dew point: 29 °F

Location of NeuwiedLocation

Historic Weather in Neuwied — Graph


Neuwied temperature yesterday

Maximum temperature yesterday: 31 °F (at 10:00 PM)
Minimum temperature yesterday: 28 °F (at 9:00 AM)
Average temperature yesterday: 30 °F

Past Weeks' High & Low Weather Summary

High55 °F (Nov 17, 1:00 PM)100% (Nov 10, 6:00 PM)30.37 "Hg (Nov 10, 6:00 PM)
Low28 °F (Nov 24, 9:00 AM)71% (Nov 18, 4:00 PM)29.41 "Hg (Nov 21, 12:00 PM)
Average44 °F89%30.03 "Hg
* Reported Nov 9 11:00 PM — Nov 24 10:00 PM, Neuwied, Weather by CustomWeather, © 2015

Note: Actual official high and low records may vary slightly from our data, if they occured in-between our weather recording intervals... More about our weather records


Neuwied weather history for previous 24 hours

Time TempWeatherWind HumidityBarometerVisibility
10:00 PM
Tue, Nov 24
31 °FLight snow. Low clouds.5 mph92%29.88 "Hg13 mi
9:00 PM31 °FLight snow. Low clouds.7 mph93%29.90 "Hg2 mi
8:00 PM31 °FLight snow. Low clouds.6 mph92%29.92 "Hg3 mi
7:00 PM31 °FLight snow. Low clouds.6 mph94%29.93 "Hg1 mi
6:00 PM31 °FLight snow. Low clouds.7 mph92%29.95 "Hg2 mi
5:00 PM31 °FLight snow. Low clouds.6 mph87%29.97 "Hg7 mi
4:00 PM31 °FLight snow. Low clouds.7 mph87%30.01 "Hg9 mi
3:00 PM31 °FOvercast.6 mph85%30.04 "Hg11 mi
2:00 PM31 °FOvercast.5 mph84%30.08 "Hg17 mi
1:00 PM31 °FOvercast.6 mph83%30.11 "Hg17 mi
12:00 PM31 °FOvercast.6 mph83%30.15 "Hg17 mi
11:00 AM30 °FLow clouds.5 mph87%30.18 "Hg14 mi
10:00 AM29 °FLow clouds.5 mph90%30.20 "Hg9 mi
9:00 AM28 °FLow clouds.5 mph94%30.22 "Hg8 mi
7:00 AM29 °FPassing clouds.3 mph87%30.23 "Hg14 mi
5:00 AM29 °FPassing clouds.2 mph88%30.24 "Hg19 mi
4:00 AM30 °FOvercast.3 mph88%30.26 "Hg22 mi
3:00 AM30 °FOvercast.2 mph86%30.28 "Hg22 mi
2:00 AM30 °FOvercast.2 mph85%30.29 "Hg25 mi
Weather by CustomWeather, © 2015

See weather overviewHow to use our weather pages